H1 CPF 2 NER 2024 2 24 9 055 01 glonass140 H2 1903001 9140 44299 2024 2 24 0 0 0 2024 2 27 23 45 0 900 1 1 0 0 0 1 H9 10 0 60364 0.00000 0 -13722222.694 -17325037.212 12768235.944 10 0 60364 900.00000 0 -14401522.967 -18555279.789 9985913.741 10 0 60364 1800.00000 0 -15000899.289 -19421014.164 7009943.477 10 0 60364 2700.00000 0 -15463385.662 -19923321.334 3898006.343 10 0 60364 3600.00000 0 -15735056.805 -20076052.090 710445.215 10 0 60364 4500.00000 0 -15767475.542 -19905063.669 -2490900.911 10 0 60364 5400.00000 0 -15519925.999 -19446967.358 -5643893.953 10 0 60364 6300.00000 0 -14961337.672 -18747439.630 -8687302.058 10 0 60364 7200.00000 0 -14071818.097 -17859167.817 -11561989.664 10 0 60364 8100.00000 0 -12843728.103 -16839516.806 -14212068.888 10 0 60364 9000.00000 0 -11282252.665 -15748015.091 -16585989.585 10 0 60364 9900.00000 0 -9405441.526 -14643766.224 -18637546.421 10 0 60364 10800.00000 0 -7243715.974 -13582894.954 -20326783.045 10 0 60364 11700.00000 0 -4838860.570 -12616135.908 -21620775.448 10 0 60364 12600.00000 0 -2242540.344 -11786666.713 -22494278.894 10 0 60364 13500.00000 0 485596.115 -11128277.170 -22930225.572 10 0 60364 14400.00000 0 3280149.773 -10663951.901 -22920062.978 10 0 60364 15300.00000 0 6072448.299 -10404926.483 -22463926.069 10 0 60364 16200.00000 0 8793164.748 -10350257.074 -21570639.527 10 0 60364 17100.00000 0 11374969.155 -10486921.798 -20257549.643 10 0 60364 18000.00000 0 13755102.780 -10790449.691 -18550188.770 10 0 60364 18900.00000 0 15877767.870 -11226050.516 -16481778.544 10 0 60364 19800.00000 0 17696233.349 -11750197.488 -14092581.328 10 0 60364 20700.00000 0 19174568.665 -12312595.555 -11429112.518 10 0 60364 21600.00000 0 20288933.643 -12858451.369 -8543229.222 10 0 60364 22500.00000 0 21028370.941 -13330948.107 -5491113.469 10 0 60364 23400.00000 0 21395068.726 -13673819.496 -2332170.421 10 0 60364 24300.00000 0 21404083.726 -13833913.118 872136.116 10 0 60364 25200.00000 0 21082537.695 -13763633.591 4059487.331 10 0 60364 26100.00000 0 20468322.700 -13423161.410 7167927.777 10 0 60364 27000.00000 0 19608371.348 -12782352.994 10137073.941 10 0 60364 27900.00000 0 18556566.350 -11822241.184 12909288.956 10 0 60364 28800.00000 0 17371378.774 -10536072.613 15430800.236 10 0 60364 29700.00000 0 16113335.362 -8929838.074 17652738.431 10 0 60364 30600.00000 0 14842422.005 -7022273.494 19532077.945 10 0 60364 31500.00000 0 13615532.579 -4844331.319 21032461.512 10 0 60364 32400.00000 0 12484069.880 -2438144.200 22124893.886 10 0 60364 33300.00000 0 11491798.494 144476.219 22788292.353 10 0 60364 34200.00000 0 10673038.534 2843943.492 23009884.603 10 0 60364 35100.00000 0 10051274.634 5595125.249 22785447.320 10 0 60364 36000.00000 0 9638237.150 8329805.369 22119381.748 10 0 60364 36900.00000 0 9433492.899 10979278.529 21024625.269 10 0 60364 37800.00000 0 9424561.607 13476971.004 19522400.916 10 0 60364 38700.00000 0 9587552.558 15760980.463 17641809.448 10 0 60364 39600.00000 0 9888294.442 17776430.725 15419271.376 10 0 60364 40500.00000 0 10283910.965 19477544.912 12897829.001 10 0 60364 41400.00000 0 10724776.267 20829351.822 10126321.004 10 0 60364 42300.00000 0 11156768.240 21808955.177 7158444.705 10 0 60364 43200.00000 0 11523725.247 22406313.303 4051723.224 10 0 60364 44100.00000 0 11770002.973 22624496.927 866396.825 10 0 60364 45000.00000 0 11843023.579 22479414.336 -2335740.546 10 0 60364 45900.00000 0 11695709.361 21999015.311 -5492537.271 10 0 60364 46800.00000 0 11288697.560 21222007.090 -8542689.511 10 0 60364 47700.00000 0 10592241.911 20196136.057 -11426932.512 10 0 60364 48600.00000 0 9587719.379 18976107.247 -14089194.398 10 0 60364 49500.00000 0 8268677.001 17621228.997 -16477689.702 10 0 60364 50400.00000 0 6641372.912 16192881.797 -18545930.949 10 0 60364 51300.00000 0 4724786.891 14751917.848 -20253638.270 10 0 60364 52200.00000 0 2550097.966 13356100.741 -21567529.025 10 0 60364 53100.00000 0 159649.105 12057693.109 -22461971.691 10 0 60364 54000.00000 0 -2394559.457 10901293.793 -22919491.052 10 0 60364 54900.00000 0 -5052786.796 9922015.568 -22931114.502 10 0 60364 55800.00000 0 -7749799.003 9144080.151 -22496552.417 10 0 60364 56700.00000 0 -10417355.166 8579889.560 -21624208.716 10 0 60364 57600.00000 0 -12986828.634 8229612.806 -20331021.026 10 0 60364 58500.00000 0 -15391854.564 8081305.093 -18642133.200 10 0 60364 59400.00000 0 -17570893.509 8111554.121 -16590406.224 10 0 60364 60300.00000 0 -19469604.062 8286625.706 -14215776.850 10 0 60364 61200.00000 0 -21042925.394 8564059.632 -11564476.374 10 0 60364 62100.00000 0 -22256782.689 8894647.433 -8688124.971 10 0 60364 63000.00000 0 -23089344.283 9224707.439 -5642719.588 10 0 60364 63900.00000 0 -23531778.288 9498559.695 -2487535.780 10 0 60364 64800.00000 0 -23588477.718 9661094.824 716034.314 10 0 60364 65700.00000 0 -23276745.722 9660326.938 3905684.316 10 0 60364 66600.00000 0 -22625955.438 9449821.500 7019411.893 10 0 60364 67500.00000 0 -21676221.258 8990894.570 9996728.450 10 0 60364 68400.00000 0 -20476638.844 8254489.801 12779836.073 10 0 60364 69300.00000 0 -19083169.255 7222653.481 15314748.512 10 0 60364 70200.00000 0 -17556257.188 5889545.169 17552334.450 10 0 60364 71100.00000 0 -15958284.084 4261941.184 19449263.257 10 0 60364 72000.00000 0 -14350963.208 2359209.666 20968835.565 10 0 60364 72900.00000 0 -12792785.691 212758.009 22081683.627 10 0 60364 73800.00000 0 -11336623.773 -2135024.644 22766329.033 10 0 60364 74700.00000 0 -10027590.493 -4632286.284 23009588.180 10 0 60364 75600.00000 0 -8901243.961 -7219629.888 22806818.729 10 0 60364 76500.00000 0 -7982209.795 -9832351.550 22162003.136 10 0 60364 77400.00000 0 -7283277.852 -12402907.127 21087668.200 10 0 60364 78300.00000 0 -6805009.669 -14863506.373 19604642.366 10 0 60364 79200.00000 0 -6535871.954 -17148728.284 17741655.297 10 0 60364 80100.00000 0 -6452889.758 -19198050.332 15534786.987 10 0 60364 81000.00000 0 -6522791.480 -20958187.724 13026776.300 10 0 60364 81900.00000 0 -6703597.445 -22385146.296 10266201.426 10 0 60364 82800.00000 0 -6946585.351 -23445904.255 7306547.192 10 0 60364 83700.00000 0 -7198549.968 -24119652.987 4205176.387 10 0 60364 84600.00000 0 -7404262.062 -24398545.275 1022224.292 10 0 60364 85500.00000 0 -7509022.826 -24287919.470 -2180562.656 10 0 60365 0.00000 0 -7461205.841 -23805990.052 -5341021.577 10 0 60365 900.00000 0 -7214678.697 -22983016.827 -8397779.842 10 0 60365 1800.00000 0 -6731001.336 -21859987.926 -11291445.911 10 0 60365 2700.00000 0 -5981307.085 -20486870.657 -13965766.624 10 0 60365 3600.00000 0 -4947785.651 -18920503.883 -16368723.860 10 0 60365 4500.00000 0 -3624703.860 -17222220.003 -18453550.542 10 0 60365 5400.00000 0 -2018919.323 -15455296.272 -20179645.592 10 0 60365 6300.00000 0 -149863.457 -13682342.364 -21513369.719 10 0 60365 7200.00000 0 1951007.385 -11962733.798 -22428706.202 10 0 60365 8100.00000 0 4241271.546 -10350198.929 -22907773.536 10 0 60365 9000.00000 0 6669069.817 -8890660.686 -22941179.665 10 0 60365 9900.00000 0 9175038.849 -7620423.580 -22528210.556 10 0 60365 10800.00000 0 11694570.613 -6564781.895 -21676849.102 10 0 60365 11700.00000 0 14160304.381 -5737107.250 -20403623.580 10 0 60365 12600.00000 0 16504747.645 -5138453.461 -18733288.244 10 0 60365 13500.00000 0 18662916.752 -4757694.783 -16698341.949 10 0 60365 14400.00000 0 20574886.919 -4572190.943 -14338393.930 10 0 60365 15300.00000 0 22188144.845 -4548950.034 -11699389.065 10 0 60365 16200.00000 0 23459645.309 -4646239.089 -8832707.867 10 0 60365 17100.00000 0 24357485.557 -4815573.067 -5794159.103 10 0 60365 18000.00000 0 24862127.338 -5003996.797 -2642885.327 10 0 60365 18900.00000 0 24967115.697 -5156561.951 559796.565 10 0 60365 19800.00000 0 24679265.005 -5218892.865 3751596.261 10 0 60365 20700.00000 0 24018305.312 -5139731.337 6870468.105 10 0 60365 21600.00000 0 23016005.066 -4873351.672 9855821.759 10 0 60365 22500.00000 0 21714808.297 -4381743.001 12649701.297 10 0 60365 23400.00000 0 20166044.777 -3636466.070 15197909.446 10 0 60365 24300.00000 0 18427789.359 -2620105.796 17451055.135 10 0 60365 25200.00000 0 16562461.065 -1327258.137 19365504.452 10 0 60365 26100.00000 0 14634262.920 234990.316 20904217.232 10 0 60365 27000.00000 0 12706569.617 2047110.363 22037454.084 10 0 60365 27900.00000 0 10839371.667 4077704.101 22743341.322 10 0 60365 28800.00000 0 9086881.846 6284581.184 23008284.033 10 0 60365 29700.00000 0 7495402.520 8616293.232 22827220.402 10 0 60365 30600.00000 0 6101541.254 11014063.438 22203713.225 10 0 60365 31500.00000 0 4930847.540 13414032.163 21149877.433 10 0 60365 32400.00000 0 3996925.945 15749726.466 19686145.221 10 0 60365 33300.00000 0 3301061.251 17954652.243 17840873.163 10 0 60365 34200.00000 0 2832370.114 19964902.494 15649798.446 10 0 60365 35100.00000 0 2568472.025 21721674.361 13155353.987 10 0 60365 36000.00000 0 2476650.849 23173591.117 10405854.784 10 0 60365 36900.00000 0 2515457.916 24278732.930 7454570.327 10 0 60365 37800.00000 0 2636689.108 25006292.031 4358700.142 10 0 60365 38700.00000 0 2787652.685 25337783.158 1178271.556 10 0 60365 39600.00000 0 2913632.217 25267758.385 -2025019.457 10 0 60365 40500.00000 0 2960440.496 24803995.988 -5189002.175 10 0 60365 41400.00000 0 2876956.260 23967154.787 -8252236.720 10 0 60365 42300.00000 0 2617535.947 22789907.859 -11155207.789 10 0 60365 43200.00000 0 2144197.709 21315591.256 -13841483.104 10 0 60365 44100.00000 0 1428484.279 19596423.834 -16258813.736 10 0 60365 45000.00000 0 452924.639 17691372.357 -18360154.537 10 0 60365 45900.00000 0 -787968.818 15663751.002 -20104584.439 10 0 60365 46800.00000 0 -2287211.407 13578655.579 -21458108.429 10 0 60365 47700.00000 0 -4025388.034 11500339.777 -22394325.220 10 0 60365 48600.00000 0 -5971225.915 9489643.176 -22894947.361 10 0 60365 49500.00000 0 -8082675.926 7601578.557 -22950163.358 10 0 60365 50400.00000 0 -10308458.776 5883179.395 -22558834.423 10 0 60365 51300.00000 0 -12590012.634 4371697.438 -21728521.668 10 0 60365 52200.00000 0 -14863761.689 3093225.534 -20475342.841 10 0 60365 53100.00000 0 -17063611.408 2061802.980 -18823661.004 10 0 60365 54000.00000 0 -19123566.417 1279040.296 -16805610.897 10 0 60365 54900.00000 0 -20980361.535 734278.326 -14460471.943 10 0 60365 55800.00000 0 -22575995.573 405273.954 -11833900.086 10 0 60365 56700.00000 0 -23860061.460 259382.289 -8977033.516 10 0 60365 57600.00000 0 -24791774.687 255184.088 -5945490.107 10 0 60365 58500.00000 0 -25341614.698 344488.121 -2798276.686 10 0 60365 59400.00000 0 -25492510.338 474622.307 403367.783 10 0 60365 60300.00000 0 -25240519.767 590915.102 3597171.710 10 0 60365 61200.00000 0 -24594976.812 639260.748 6721048.695 10 0 60365 62100.00000 0 -23578098.400 568658.523 9714309.164 10 0 60365 63000.00000 0 -22224070.504 333617.639 12518841.575 10 0 60365 63900.00000 0 -20577652.065 -103674.645 15080239.854 10 0 60365 64800.00000 0 -18692356.392 -771513.649 17348855.174 10 0 60365 65700.00000 0 -16628287.034 -1687244.455 19280752.042 10 0 60365 66600.00000 0 -14449719.161 -2856296.040 20838550.833 10 0 60365 67500.00000 0 -12222527.603 -4271723.001 21992141.441 10 0 60365 68400.00000 0 -10011568.489 -5914274.222 22719255.400 10 0 60365 69300.00000 0 -7878122.873 -7752985.856 23005886.560 10 0 60365 70200.00000 0 -5877507.612 -9746274.341 22846553.291 10 0 60365 71100.00000 0 -4056951.468 -11843484.585 22244398.029 10 0 60365 72000.00000 0 -2453823.220 -13986829.697 21211122.816 10 0 60365 72900.00000 0 -1094283.824 -16113642.652 19766762.294 10 0 60365 73800.00000 0 7582.818 -18158847.350 17939298.399 10 0 60365 74700.00000 0 850125.646 -20057547.409 15764123.747 10 0 60365 75600.00000 0 1443955.119 -21747625.973 13283363.356 10 0 60365 76500.00000 0 1811252.825 -23172249.113 10545066.922 10 0 60365 77400.00000 0 1984591.573 -24282168.978 7602286.372 10 0 60365 78300.00000 0 2005315.872 -25037730.865 4512055.665 10 0 60365 79200.00000 0 1921551.128 -25410500.258 1334291.817 10 0 60365 80100.00000 0 1785925.548 -25384441.402 -1869362.023 10 0 60365 81000.00000 0 1653100.996 -24956597.473 -5036729.375 10 0 60365 81900.00000 0 1577217.311 -24137243.021 -8106306.052 10 0 60365 82800.00000 0 1609358.486 -22949501.411 -11018455.050 10 0 60365 83700.00000 0 1795148.464 -21428442.362 -13716567.281 10 0 60365 84600.00000 0 2172579.023 -19619696.523 -16148165.255 10 0 60365 85500.00000 0 2770162.674 -17577644.378 -18265927.856 10 0 60366 0.00000 0 3605489.800 -15363254.846 -20028615.795 10 0 60366 900.00000 0 4684252.936 -13041662.326 -21401880.286 10 0 60366 1800.00000 0 5999779.807 -10679586.120 -22358936.599 10 0 60366 2700.00000 0 7533097.939 -8342695.889 -22881092.256 10 0 60366 3600.00000 0 9253528.786 -6093035.893 -22958116.852 10 0 60366 4500.00000 0 11119788.379 -3986614.293 -22588446.980 10 0 60366 5400.00000 0 13081549.614 -2071258.161 -21779221.742 10 0 60366 6300.00000 0 15081401.771 -384823.519 -20546147.779 10 0 60366 7200.00000 0 17057125.880 1046165.133 -18913196.037 10 0 60366 8100.00000 0 18944191.002 2207389.506 -16912135.872 10 0 60366 9000.00000 0 20678366.865 3097090.549 -14581915.268 10 0 60366 9900.00000 0 22198343.111 3725886.064 -11967899.215 10 0 60366 10800.00000 0 23448244.843 4116061.826 -9120981.195 10 0 60366 11700.00000 0 24379938.415 4300367.540 -6096585.432 10 0 60366 12600.00000 0 24955030.105 4320370.042 -2953579.980 10 0 60366 13500.00000 0 25146473.367 4224434.956 246877.396 10 0 60366 14400.00000 0 24939716.931 4065423.856 3442537.181 10 0 60366 15300.00000 0 24333345.660 3898205.906 6571275.575 10 0 60366 16200.00000 0 23339187.581 3777090.673 9572306.978 10 0 60366 17100.00000 0 21981883.247 3753291.874 12387367.208 10 0 60366 18000.00000 0 20297936.257 3872530.115 14961844.078 10 0 60366 18900.00000 0 18334285.528 4172876.426 17245833.348 10 0 60366 19800.00000 0 16146459.790 4682927.837 19195099.925 10 0 60366 20700.00000 0 13796391.933 5420391.852 20771926.322 10 0 60366 21600.00000 0 11349984.597 6391139.310 21945832.933 10 0 60366 22500.00000 0 8874528.196 7588765.298 22694157.322 10 0 60366 23400.00000 0 6436078.248 8994676.512 23002482.483 10 0 60366 24300.00000 0 4096900.012 10578701.620 22864906.914 10 0 60366 25200.00000 0 1913085.240 12300199.543 22284152.163 10 0 60366 26100.00000 0 -67561.512 14109620.040 21271506.381 10 0 60366 27000.00000 0 -1807280.870 15950452.413 19846605.193 10 0 60366 27900.00000 0 -3279689.555 17761482.113 18037054.013 10 0 60366 28800.00000 0 -4470630.354 19479262.220 15877898.632 10 0 60366 29700.00000 0 -5378507.078 21040697.795 13410953.622 10 0 60366 30600.00000 0 -6014091.651 22385636.096 10684000.604 10 0 60366 31500.00000 0 -6399812.190 23459355.124 7749871.021 10 0 60366 32400.00000 0 -6568552.518 24214846.752 4665430.247 10 0 60366 33300.00000 0 -6562013.892 24614798.905 1490481.948 10 0 60366 34200.00000 0 -6428708.106 24633193.347 -1713386.582 10 0 60366 35100.00000 0 -6221666.725 24256451.471 -4883996.048 10 0 60366 36000.00000 0 -5995963.319 23484079.085 -7959780.749 10 0 60366 36900.00000 0 -5806153.632 22328782.075 -10880984.569 10 0 60366 37800.00000 0 -5703742.319 20816046.900 -13590823.940 10 0 60366 38700.00000 0 -5734783.963 18983202.326 -16036594.838 10 0 60366 39600.00000 0 -5937720.563 16878000.598 -18170701.896 10 0 60366 40500.00000 0 -6341547.935 14556776.455 -19951589.279 10 0 60366 41400.00000 0 -6964389.589 12082260.151 -21344554.877 10 0 60366 42300.00000 0 -7812539.639 9521135.206 -22322431.644 10 0 60366 43200.00000 0 -8880016.487 6941442.371 -22866122.539 10 0 60366 44100.00000 0 -10148647.561 4409937.710 -22964978.375 10 0 60366 45000.00000 0 -11588682.928 1989514.750 -22617010.889 10 0 60366 45900.00000 0 -13159913.270 -263202.087 -21828936.530 10 0 60366 46800.00000 0 -14813246.325 -2299992.655 -20616049.760 10 0 60366 47700.00000 0 -16492676.355 -4082816.099 -19001927.914 10 0 60366 48600.00000 0 -18137564.416 -5585152.068 -17017973.054 10 0 60366 49500.00000 0 -19685133.806 -6792852.741 -14702799.471 10 0 60366 50400.00000 0 -21073075.677 -7704470.900 -12101478.672 10 0 60366 51300.00000 0 -22242154.882 -8331051.447 -9264656.700 10 0 60366 52200.00000 0 -23138705.917 -8695396.581 -6247561.280 10 0 60366 53100.00000 0 -23716913.302 -8830837.161 -3108918.774 10 0 60366 54000.00000 0 -23940779.858 -8779563.825 90197.185 10 0 60366 54900.00000 0 -23785699.589 -8590590.108 3287562.080 10 0 60366 55800.00000 0 -23239568.785 -8317435.375 6421017.598 10 0 60366 56700.00000 0 -22303388.588 -8015627.093 9429684.918 10 0 60366 57600.00000 0 -20991334.017 -7740129.377 12255149.894 10 0 60366 58500.00000 0 -19330286.954 -7542807.484 14842596.708 10 0 60366 59400.00000 0 -17358853.265 -7470036.016 17141867.915 10 0 60366 60300.00000 0 -15125905.672 -7560552.012 19108430.675 10 0 60366 61200.00000 0 -12688713.706 -7843643.437 20704231.070 10 0 60366 62100.00000 0 -10110738.876 -8337749.056 21898420.955 10 0 60366 63000.00000 0 -7459186.674 -9049528.245 22667944.389 10 0 60366 63900.00000 0 -4802416.728 -9973439.444 22997973.494 10 0 60366 64800.00000 0 -2207317.710 -11091844.790 22882186.426 10 0 60366 65700.00000 0 263245.287 -12375636.589 22322882.976 10 0 60366 66600.00000 0 2552806.462 -13785359.757 21330936.184 10 0 60366 67500.00000 0 4613401.198 -15272783.895 19925581.151 10 0 60366 68400.00000 0 6407308.557 -16782860.125 18134045.009 10 0 60366 69300.00000 0 7908363.517 -18255981.865 15991024.745 10 0 60366 70200.00000 0 9102785.817 -19630455.991 13538022.295 10 0 60366 71100.00000 0 9989492.050 -20845081.970 10822548.846 10 0 60366 72000.00000 0 10579878.921 -21841731.689 7897212.841 10 0 60366 72900.00000 0 10897087.434 -22567822.335 4818708.445 10 0 60366 73800.00000 0 10974779.371 -22978578.754 1646723.290 10 0 60366 74700.00000 0 10855477.732 -23038990.060 -1557213.863 10 0 60366 75600.00000 0 10588541.236 -22725377.740 -4730923.528 10 0 60366 76500.00000 0 10227858.401 -22026508.416 -7812781.012 10 0 60366 77400.00000 0 9829358.728 -20944203.364 -10742913.480 10 0 60366 78300.00000 0 9448446.384 -19493417.819 -13464365.121 10 0 60366 79200.00000 0 9137465.219 -17701785.291 -15924207.429 10 0 60366 80100.00000 0 8943302.831 -15608644.599 -18074572.627 10 0 60366 81000.00000 0 8905235.584 -13263589.034 -19873589.778 10 0 60366 81900.00000 0 9053106.500 -10724597.145 -21286205.053 10 0 60366 82800.00000 0 9405913.891 -8055822.277 -22284869.864 10 0 60366 83700.00000 0 9970871.391 -5325132.317 -22850083.192 10 0 60366 84600.00000 0 10742980.115 -2601501.591 -22970777.288 10 0 60366 85500.00000 0 11705132.136 47636.800 -22644538.885 10 0 60367 0.00000 0 12828741.845 2558968.054 -21877661.396 10 0 60367 900.00000 0 14074880.190 4875696.406 -20685026.176 10 0 60367 1800.00000 0 15395863.226 6949666.392 -19089815.911 10 0 60367 2700.00000 0 16737230.590 8743121.020 -17123064.010 10 0 60367 3600.00000 0 18040029.320 10230020.576 -14823049.404 10 0 60367 4500.00000 0 19243307.289 11396868.968 -12234548.157 10 0 60367 5400.00000 0 20286710.776 12243013.781 -9407956.599 10 0 60367 6300.00000 0 21113076.095 12780408.699 -6398303.394 10 0 60367 7200.00000 0 21670905.345 13032849.762 -3264170.405 10 0 60367 8100.00000 0 21916621.192 13034719.317 -66544.140 10 0 60367 9000.00000 0 21816504.955 12829292.418 3132378.967 10 0 60367 9900.00000 0 21348235.856 12466678.950 6270409.163 10 0 60367 10800.00000 0 20501966.295 12001490.088 9286577.374 10 0 60367 11700.00000 0 19280887.878 11490329.138 12122322.286 10 0 60367 12600.00000 0 17701264.510 10989213.887 14722627.001 10 0 60367 13500.00000 0 15791931.472 10551040.085 17037083.143 10 0 60367 14400.00000 0 13593281.726 10223193.399 19020862.100 10 0 60367 15300.00000 0 11155782.090 10045410.503 20635575.186 10 0 60367 16200.00000 0 8538081.248 10047979.006 21850007.038 10 0 60367 17100.00000 0 5804788.177 10250351.378 22640709.173 10 0 60367 18000.00000 0 3024012.897 10660230.494 22992443.412 10 0 60367 18900.00000 0 264770.773 11273164.587 22898467.700 10 0 60367 19800.00000 0 -2405643.110 12072668.260 22360659.734 10 0 60367 20700.00000 0 -4924202.009 13030864.314 21389476.624 10 0 60367 21600.00000 0 -7234513.976 14109619.747 20003751.627 10 0 60367 22500.00000 0 -9288910.196 15262128.805 18230331.800 10 0 60367 23400.00000 0 -11050170.050 16434877.508 16103563.126 10 0 60367 24300.00000 0 -12492812.681 17569908.177 13664632.377 10 0 60367 25200.00000 0 -13603902.508 18607289.913 10960777.527 10 0 60367 26100.00000 0 -14383336.089 19487692.150 8044381.101 10 0 60367 27000.00000 0 -14843599.060 20154953.757 4971963.073 10 0 60367 27900.00000 0 -15009003.866 20558540.025 1803092.053 10 0 60367 28800.00000 0 -14914440.563 20655784.074 -1400764.671 10 0 60367 29700.00000 0 -14603693.405 20413817.921 -4577430.280 10 0 60367 30600.00000 0 -14127394.201 19811111.094 -7665223.821 10 0 60367 31500.00000 0 -13540698.857 18838550.866 -10604158.313 10 0 60367 32400.00000 0 -12900785.258 17500017.281 -13337108.059 10 0 60367 33300.00000 0 -12264278.374 15812427.209 -15810922.179 10 0 60367 34200.00000 0 -11684711.672 13805243.943 -17977462.303 10 0 60367 35100.00000 0 -11210132.454 11519471.272 -19794543.901 10 0 60367 36000.00000 0 -10880952.799 9006172.622 -21226762.619 10 0 60367 36900.00000 0 -10728137.459 6324575.838 -22246189.195 10 0 60367 37800.00000 0 -10771805.879 3539841.601 -22832919.183 10 0 60367 38700.00000 0 -11020308.093 720587.632 -22975466.480 10 0 60367 39600.00000 0 -11469814.197 -2063728.822 -22670992.675 10 0 60367 40500.00000 0 -12104435.498 -4745461.709 -21925367.442 10 0 60367 41400.00000 0 -12896872.858 -7261350.072 -20753058.385 10 0 60367 42300.00000 0 -13809565.433 -9554908.174 -19176852.130 10 0 60367 43200.00000 0 -14796291.722 -11578532.498 -17227411.724 10 0 60367 44100.00000 0 -15804155.502 -13295238.085 -14942678.698 10 0 60367 45000.00000 0 -16775872.721 -14679952.119 -12367131.341 10 0 60367 45900.00000 0 -17652262.425 -15720311.416 -9550913.729 10 0 60367 46800.00000 0 -18374835.990 -16416931.333 -6548852.769 10 0 60367 47700.00000 0 -18888374.495 -16783136.097 -3419383.038 10 0 60367 48600.00000 0 -19143384.622 -16844163.379 -223401.065 10 0 60367 49500.00000 0 -19098328.524 -16635878.306 2976927.670 10 0 60367 50400.00000 0 -18721532.883 -16203052.878 6119384.851 10 0 60367 51300.00000 0 -17992696.073 -15597285.111 9142914.007 10 0 60367 52200.00000 0 -16903929.635 -14874647.302 11988809.423 10 0 60367 53100.00000 0 -15460290.088 -14093163.924 14601855.748 10 0 60367 54000.00000 0 -13679778.780 -13310226.496 16931396.078 10 0 60367 54900.00000 0 -11592809.853 -12580054.880 18932308.121 10 0 60367 55800.00000 0 -9241168.670 -11951311.981 20565870.135 10 0 60367 56700.00000 0 -6676504.160 -11464971.899 21800500.805 10 0 60367 57600.00000 0 -3958417.614 -11152530.458 22612359.908 10 0 60367 58500.00000 0 -1152226.954 -11034632.430 22985799.275 10 0 60367 59400.00000 0 1673501.489 -11120172.159 22913656.500 10 0 60367 60300.00000 0 4449552.418 -11405904.485 22397386.622 10 0 60367 61200.00000 0 7108685.765 -11876581.687 21447029.863 10 0 60367 62100.00000 0 9588178.386 -12505610.396 20081016.355 10 0 60367 63000.00000 0 11832179.450 -13256200.951 18325811.495 10 0 60367 63900.00000 0 13793783.292 -14082961.336 16215408.391 10 0 60367 64800.00000 0 15436735.065 -14933869.361 13790676.511 10 0 60367 65700.00000 0 16736699.420 -15752540.975 11098578.224 10 0 60367 66600.00000 0 17682040.328 -16480700.104 8191267.484 10 0 60367 67500.00000 0 18274080.181 -17060746.685 5125087.221 10 0 60367 68400.00000 0 18526827.835 -17438315.215 1959484.017 10 0 60367 69300.00000 0 18466187.253 -17564716.050 -1244139.385 10 0 60367 70200.00000 0 18128680.112 -17399156.293 -4423611.884 10 0 60367 71100.00000 0 17559736.121 -16910645.940 -7517199.206 10 0 60367 72000.00000 0 16811623.035 -16079507.914 -10464802.964 10 0 60367 72900.00000 0 15941103.622 -14898426.991 -13209130.076 10 0 60367 73800.00000 0 15006918.454 -13372991.844 -15696809.506 10 0 60367 74700.00000 0 14067200.830 -11521705.675 -17879434.205 10 0 60367 75600.00000 0 13176933.144 -9375463.153 -19714507.643 10 0 60367 76500.00000 0 12385552.255 -6976513.793 -21166276.188 10 0 60367 77400.00000 0 11734805.243 -4376953.552 -22206430.801 10 0 60367 78300.00000 0 11256946.348 -1636806.190 -22814664.126 10 0 60367 79200.00000 0 10973351.558 1178226.743 -22979071.847 10 0 60367 80100.00000 0 10893609.644 3999254.426 -22696390.188 10 0 60367 81000.00000 0 11015128.383 6756820.833 -21972064.600 10 0 60367 81900.00000 0 11323272.889 9383555.549 -20820147.909 10 0 60367 82800.00000 0 11792030.456 11816741.210 -19263029.525 10 0 60367 83700.00000 0 12385173.976 14000690.793 -17331000.649 10 0 60367 84600.00000 0 13057874.711 15888835.809 -15061663.638 10 0 60367 85500.00000 0 13758696.050 17445438.452 -12499196.947 99